Weather History for Paducah, KY

Change the Weather History Date:

Friday, July 22, 2011

  Actual Average Record
Temperature  
Mean Temperature 84 °F 79 °F  
Max Temperature 94 °F 89 °F 99 °F (2012)
Min Temperature 74 °F 68 °F 53 °F (1944)
Degree Days  
Heating Degree Days 0 0  
Month to date heating degree days 0 0  
Since 1 June heating degree days 0 4  
Since 1 July heating degree days 0 0  
Cooling Degree Days 19 14  
Month to date cooling degree days 368 308  
Year to date cooling degree days 986 800  
Since 1 June cooling degree days 766 628  
Growing Degree Days 34 (Base 50)    
Moisture  
Dew Point 74 °F    
Average Humidity 72    
Maximum Humidity 87    
Minimum Humidity 56    
Precipitation  
Precipitation 0.00 in 0.15 in 1.85 in (1990)
Month to date precipitation 1.69 3.24  
Year to date precipitation 46.58 28.52  
Snow  
Snow 0.00 in 0.00 in 0.00 in (2002)
Month to date snowfall 0.0 0.0  
Since 1 June snowfall 0.0 0.0  
Since 1 July snowfall 0.0 0.0  
Snow Depth 0.00 in    
Sea Level Pressure  
Sea Level Pressure 29.92 in    
Wind  
Wind Speed 4 mph (SSE)    
Max Wind Speed 12 mph    
Max Gust Speed 15 mph    
Visibility 9 miles    
Events      
T = Trace of Precipitation, MM = Missing Value Source: NWS Daily Summary

Daily Weather History Graph

Daily Weather History Graph

Search for Another Location

Airport:

Trip Planner

Search our weather history database for the weather conditions in past years. The results will help you decide how hot, cold, wet, or windy it might be!

Date:

Astronomy

Jul. 22, 2011 Rise Set
Actual Time 5:52 AM CDT 8:10 PM CDT
Civil Twilight 5:22 AM CDT 8:40 PM CDT
Nautical Twilight 4:46 AM CDT 9:16 PM CDT
Astronomical Twilight 4:06 AM CDT 9:55 PM CDT
Moon 11:51 PM CDT (7/22) 1:00 PM CDT (7/22)
Length of Visible Light 15h 17m
Length of Day
14h 18m
Waning Gibbous, 55% of the Moon is Illuminated
Jul 22
Waning Gibbous
Jul 23
Last Quarter
Jul 30
New
Aug 6
First Quarter
Aug 13
Full

Hourly Weather History & Observations

Time (CDT) Temp. Heat Index Dew Point Humidity Pressure Visibility Wind Dir Wind Speed Gust Speed Precip Events Conditions
12:53 AM 78.1 °F - 71.1 °F 79% 29.90 in 9.0 mi Calm Calm - N/A   Clear
1:53 AM 75.0 °F - 71.1 °F 87% 29.90 in 8.0 mi Calm Calm - N/A   Clear
2:53 AM 75.2 °F - 71.6 °F 89% 29.92 in 9.0 mi Calm Calm - N/A   Clear
3:53 AM 75.0 °F - 70.0 °F 84% 29.91 in 9.0 mi South 4.6 mph - N/A   Clear
4:53 AM 75.0 °F - 71.1 °F 87% 29.93 in 9.0 mi Calm Calm - N/A   Clear
5:53 AM 75.2 °F - 69.8 °F 83% 29.95 in 8.0 mi Calm Calm - N/A   Clear
6:53 AM 77.0 °F - 72.0 °F 84% 29.95 in 7.0 mi Calm Calm - N/A   Clear
7:53 AM 80.1 °F 84.2 °F 73.0 °F 79% 29.96 in 9.0 mi SSW 4.6 mph - N/A   Clear
8:53 AM 82.0 °F 87.4 °F 73.0 °F 74% 29.96 in 10.0 mi SW 5.8 mph - N/A   Clear
9:53 AM 84.0 °F 90.2 °F 73.0 °F 69% 29.95 in 10.0 mi Variable 4.6 mph - N/A   Clear
10:53 AM 88.0 °F 95.6 °F 73.0 °F 61% 29.97 in 10.0 mi Variable 3.5 mph - N/A   Clear
11:53 AM 90.0 °F 97.9 °F 73.0 °F 57% 29.97 in 10.0 mi Calm Calm - N/A   Clear
12:53 PM 90.0 °F 97.9 °F 73.0 °F 57% 29.95 in 10.0 mi NW 3.5 mph - N/A   Scattered Clouds
1:53 PM 93.0 °F 104.6 °F 75.0 °F 56% 29.93 in 10.0 mi Calm Calm - N/A   Clear
2:53 PM 91.9 °F 103.2 °F 75.0 °F 58% 29.91 in 10.0 mi SSE 3.5 mph - N/A   Clear
3:53 PM 93.0 °F 105.3 °F 75.9 °F 57% 29.89 in 9.0 mi ESE 8.1 mph - N/A   Scattered Clouds
4:53 PM 91.0 °F 104.2 °F 77.0 °F 63% 29.89 in 8.0 mi SSE 10.4 mph - N/A   Clear
5:53 PM 90.0 °F 100.2 °F 75.0 °F 61% 29.88 in 8.0 mi SSE 5.8 mph - N/A   Clear
6:53 PM 89.1 °F 100.2 °F 75.9 °F 65% 29.89 in 8.0 mi SSE 4.6 mph - N/A   Clear
7:53 PM 84.9 °F 94.1 °F 75.9 °F 74% 29.89 in 7.0 mi SE 3.5 mph - N/A   Clear
8:53 PM 84.0 °F 92.6 °F 75.9 °F 76% 29.91 in 8.0 mi South 4.6 mph - N/A   Clear
9:53 PM 80.1 °F 85.4 °F 75.9 °F 87% 29.93 in 7.0 mi SE 3.5 mph - N/A   Clear
10:53 PM 81.0 °F 86.7 °F 75.0 °F 82% 29.92 in 8.0 mi SSE 4.6 mph - N/A   Clear
11:53 PM 82.0 °F 87.9 °F 73.9 °F 76% 29.92 in 8.0 mi South 4.6 mph - N/A   Clear